User: anonymous   Login
Location: La Pernelle
(49.6188°N, 1.2999°W)
Time: 21:01:38
(UTC+00:00)
Language:

FENGYUN 1C DEB - Orbit

View from above orbital plane
View from above orbital plane
View from above satellite
View from above satellite

Ground track
Ground track

The orbit data is extracted from the following two-line orbital elements,

1 38113U 99025EPJ 21343.19768337  .00001114  00000-0  66827-3 0  9997
2 38113  98.4039 335.2185 0137760 339.0015  20.5530 14.04229472610943
Epoch (UTC): 09 December 2021 04:44:39
Eccentricity: 0.0137760
inclination: 98.4039°
perigee height: 779 km
apogee height: 979 km
right ascension of ascending node: 335.2185°
argument of perigee: 339.0015°
revolutions per day: 14.04229472
mean anomaly at epoch: 20.5530°
orbit number at epoch: 61094

The dashed part of the orbit path shows where the satellite is in the earth's shadow,  

DLR